Location: Maynard F. Jordan Observatory
(44.9000°N, 68.6700°W)
Time: 16:22:53
(UTC-04:00)

Daily predictions for brighter satellites

Satellite Brightness Start Highest point End
(mag) Time Altitude Azimuth Time Altitude Azimuth Time Altitude Azimuth
Cosmos 1140 Rocket 3.8 19:58:11 10° NNW 20:03:19 53° ENE 20:08:26 10° SE
Spot 2 Rocket 3.5 19:58:35 10° SSE 20:03:40 75° ENE 20:08:46 10° N
Iridium 30 4.5 20:01:31 10° SSE 20:04:37 57° E 20:08:18 10° N
S3M 4.3 20:01:51 10° N 20:07:56 50° ENE 20:14:03 10° SSE
Cosmos 1954 Rocket 4.1 20:04:00 10° NNW 20:09:20 71° ENE 20:14:38 10° SSE
Meteor 2-11 Rocket 4.5 20:04:20 10° N 20:10:26 69° E 20:16:27 10° SSE
Cosmos 1602 4.2 20:07:20 10° SSE 20:10:56 39° E 20:14:33 10° NNE
Cosmos 1553 Rocket 4.1 20:05:01 10° N 20:11:08 57° ENE 20:17:06 10° SSE
Cosmos 614 Rocket 4.2 20:06:30 10° NNW 20:11:32 53° ENE 20:16:32 10° SE
Lacrosse 5 3.5 20:11:55 10° SE 20:14:10 13° ESE 20:16:25 10° E
MINOTAUR R/B 4.2 20:17:58 10° NNW 20:20:44 71° ENE 20:23:29 10° SSE
Resurs 01 Rocket 2.2 20:18:14 10° S 20:22:38 62° W 20:27:05 10° NNW
Cosmos 44 3.2 20:18:54 10° NW 20:23:19 75° WSW 20:27:52 10° SSE
H-2A R/B 3.9 20:20:54 10° E 20:23:38 15° ENE 20:26:20 10° NNE
GENESIS II 4.5 20:20:31 10° NNW 20:24:25 56° NE 20:27:53 12° SE
Okean 1 Rocket 4.3 20:21:44 10° SE 20:25:02 21° E 20:28:21 10° NE
Meteor 1-29 4.5 20:22:36 10° NE 20:25:02 18° E 20:26:57 12° SE
Cosmos 2263 Rocket 2.8 20:19:53 10° NNW 20:25:17 42° ENE 20:30:13 12° SE
ERBS 2.3 20:22:28 10° SW 20:25:56 73° SE 20:29:23 10° NE
Cosmos 2322 Rocket 2.6 20:20:43 10° S 20:25:58 39° ESE 20:31:14 10° NE
Cosmos 1939 Rocket 2.9 20:22:39 10° SSE 20:26:36 65° ENE 20:30:32 10° N
ARGOS 4.4 20:22:57 10° ESE 20:27:03 24° ENE 20:31:16 10° N
Cosmos 921 Rocket 3.5 20:25:06 10° SSW 20:29:14 63° WNW 20:33:24 10° NNE
Meteor 1-19 Rocket 4.3 20:23:25 10° N 20:29:19 72° ENE 20:35:08 10° SSE
Okean 1 4.0 20:25:31 10° NNW 20:29:26 57° W 20:33:19 10° S
ERS-1 Rocket 3.9 20:26:15 11° SE 20:30:26 32° ENE 20:34:53 10° N
ATLAS 3B R/B 3.7 20:24:49 10° NNW 20:30:56 33° NE 20:36:37 11° E
Cosmos 1300 Rocket 4.1 20:27:56 10° SSE 20:31:52 36° E 20:35:49 10° NNE
Envisat 3.1 20:27:36 10° S 20:32:41 80° WSW 20:37:47 10° NNW
Cosmos 1536 3.4 20:31:53 10° SSE 20:35:38 37° E 20:39:24 10° NNE
SL-16 R/B 2.4 20:30:28 10° S 20:35:51 47° ESE 20:41:16 10° NE
Lacrosse 5 rocket 1.8 20:33:14 10° WNW 20:36:47 47° SW 20:40:08 12° SSE
Helios 1B rocket 3.0 20:33:03 10° NNE 20:36:51 36° E 20:40:38 10° SSE
Tiangong 1 0.9 20:35:12 10° W 20:37:56 53° S 20:39:34 20° ESE
Cosmos 2151 Rocket 3.5 20:34:05 10° S 20:38:28 77° E 20:42:52 10° NNE
Cosmos 1025 Rocket 4.2 20:36:39 10° NNE 20:40:13 25° ENE 20:42:27 17° ESE
CZ-4B DEB 2.9 20:46:34 22° SE 20:48:02 43° ENE 20:50:47 10° N
EXPRESS MD2 2.9 20:47:26 10° SW 20:50:10 71° SSE 20:55:05 10° ENE
Cosmos 1655 Rocket 4.5 20:46:50 10° SSW 20:53:04 66° W 20:59:24 10° N
Cosmos 2360 Rocket 2.9 20:56:27 12° SSE 21:00:47 30° ESE 21:05:38 10° NE
YAOGAN 6 2.8 20:57:34 12° S 21:00:51 67° W 21:04:22 10° NNW
Cosmos 1536 Rocket 3.9 20:57:15 10° NNW 21:01:32 63° W 21:05:49 10° S
Meteor 1-5 Rocket 4.2 20:56:40 10° S 21:01:52 55° E 21:07:02 10° NNE
Cosmos 1980 Rocket 3.6 20:56:34 10° SW 21:01:52 42° WNW 21:07:11 10° NNE
Cosmos 839 Rocket 4.2 20:56:02 10° SW 21:02:15 75° NW 21:08:37 10° NNE
Abrixas rocket 3.2 20:59:47 10° W 21:02:58 45° N 21:05:32 14° ENE
MetOp-B 4.4 20:59:24 19° SE 21:03:05 54° ENE 21:08:17 10° N
ATLAS 2AS CENTAUR R/B 3.2 20:57:01 10° S 21:04:18 49° ESE 21:12:01 10° NE
BREEZE M DEB (TANK) 3.6 20:57:56 10° SSW 21:04:40 27° SSE 21:05:34 25° SE
Cosmos 1452 Rocket 4.4 21:00:29 10° SW 21:05:38 54° WNW 21:10:51 10° NNE
Cosmos 1850 Rocket 4.1 21:01:14 10° NNW 21:06:36 80° WSW 21:10:45 17° SSE
Terra 3.6 21:06:49 14° E 21:08:19 16° ENE 21:11:13 10° NNE
Meteor 2-4 Rocket 3.8 21:03:10 10° NNW 21:08:42 78° W 21:14:13 11° S
Cosmos 1420 Rocket 4.3 21:04:42 10° SSW 21:09:51 69° WNW 21:15:03 10° NNE
NOSS 2-3 (E) 3.8 21:10:15 10° SSW 21:14:54 69° ESE 21:20:24 10° NE
SL-08 RB Rocket 4.2 21:13:22 28° ESE 21:15:17 43° ENE 21:19:36 10° N
Helios 1A 3.6 21:11:48 12° S 21:15:35 55° W 21:19:47 10° NNW
Atlas Centaur 2 3.8 21:10:08 10° WSW 21:16:06 24° S 21:18:37 20° SSE
Cosmos 1331 Rocket 4.5 21:14:00 24° SSE 21:16:23 37° ESE 21:21:10 10° NE
Okean 2 3.6 21:12:45 10° N 21:16:45 50° ENE 21:18:07 34° SE
SL-8 R/B 4.1 21:12:12 10° WNW 21:16:57 60° N 21:20:04 21° E
NOAA 11 4.2 21:13:58 18° SSE 21:18:12 89° WSW 21:23:45 10° NNW
SPOT 1/Viking Rocket 4.0 21:22:14 29° ESE 21:24:21 44° ENE 21:29:19 10° N
Cosmos 1238 Rocket 4.3 21:25:03 10° N 21:31:40 53° ENE 21:34:39 31° SE
BREEZE-M DEB (TANK) 2.0 21:30:34 10° WSW 21:32:42 47° WNW 21:32:42 47° WNW
SeaSat 1 4.1 21:30:22 10° NNE 21:34:49 35° NW 21:39:16 10° WSW
Cosmos 1244 Rocket 4.5 21:35:01 26° SSE 21:38:30 62° E 21:44:34 10° NNE
Cosmos 1455 Rocket 3.9 21:47:37 34° ENE 21:47:37 34° ENE 21:51:14 10° NNE
SPOT 5 2.8 21:46:37 41° SSE 21:48:23 90° SSW 21:53:07 10° NNW
NOSS 2-3 (C) 4.2 21:43:51 10° SW 21:48:35 69° NW 21:54:15 10° NE
Cosmos 1975 3.2 21:50:49 46° ENE 21:50:49 46° ENE 21:54:13 10° NNE
Lacrosse 5 1.7 21:51:17 10° SW 21:56:20 73° SE 22:01:24 10° NE
NOSS 3-2 (A) 4.4 21:52:08 10° NNW 21:59:19 53° NE 22:03:02 31° ESE
USA 238 DEB 3.7 21:52:29 10° NW 21:59:37 81° NE 22:02:25 41° SE
Cosmos 1743 4.4 22:01:15 23° NE 22:01:15 23° NE 22:03:07 10° NNE
USA 238 3.7 21:52:35 10° NW 21:59:43 80° NE 22:02:31 41° SE
Cosmos 2315 Rocket 4.4 21:53:37 10° NNW 21:59:44 60° W 22:03:43 23° SSW
H-2A R/B 1.9 22:00:55 47° S 22:02:26 82° WSW 22:07:28 10° NNW
Okean 1-7 Rocket 4.5 21:58:39 10° NNW 22:02:57 46° W 22:04:41 30° SW
YAOGAN 11 4.3 22:05:01 53° SSW 22:05:50 66° WSW 22:10:09 10° NNW
Cosmos 2278 Rocket 3.5 22:01:31 10° N 22:06:16 26° NE 22:07:46 24° ENE
ARGOS 3.7 22:04:28 29° SSW 22:06:57 52° W 22:12:12 10° NNW
Cosmos 2237 4.1 22:06:23 47° S 22:07:53 66° ESE 22:13:33 10° NNE
Cosmos 2263 Rocket 3.5 22:04:03 10° NW 22:09:05 33° WSW 22:11:56 21° SSW
ERS-1 Rocket 4.3 22:06:15 19° SSW 22:09:09 34° W 22:13:43 10° NNW
Cosmos 2322 Rocket 3.8 22:04:51 10° WSW 22:10:03 35° NW 22:15:17 10° NNE
IGS 5A 3.9 22:11:18 50° NE 22:11:18 50° NE 22:15:00 10° N
Cosmos 1844 Rocket 2.7 22:12:11 10° NNW 22:17:53 70° ENE 22:18:48 59° ESE
CARTOSAT-1 3.6 22:19:24 66° NE 22:19:24 66° NE 22:23:26 10° N
SL-16 R/B 4.0 22:15:11 10° WSW 22:20:09 31° NW 22:25:09 10° N
ATLAS 3B R/B 2.7 22:15:27 10° NW 22:22:09 68° WSW 22:23:52 49° S
Cosmos 405 4.1 22:26:01 45° NNW 22:26:01 45° NNW 22:28:50 10° N
Cosmos 2322 3.9 22:24:05 21° SW 22:27:55 69° WNW 22:33:37 10° NNE
Cosmos 1602 Rocket 4.3 22:24:50 10° N 22:28:14 44° NE 22:28:14 44° NE
BREEZE-M DEB 3.2 22:23:22 10° WNW 22:29:11 64° WNW 22:29:11 64° WNW
Landsat 7 3.9 22:29:53 65° SW 22:30:12 68° WSW 22:34:58 10° NNW
Nimbus 7 Rocket 4.4 22:25:01 10° NNE 22:30:53 77° WNW 22:33:07 40° SSW
Cosmos 1486 Rocket 4.0 22:26:06 10° NNW 22:31:21 70° WSW 22:31:49 65° SW
Cosmos 2219 Rocket 2.9 22:32:43 38° ENE 22:32:43 38° ENE 22:36:47 10° NE
Cosmos 1745 Rocket 3.8 22:30:57 58° S 22:32:15 85° E 22:38:26 10° N
H-2A R/B 2.8 22:33:11 44° NE 22:33:11 44° NE 22:36:41 10° N
Cosmos 1302 Rocket 4.0 22:32:54 62° SW 22:33:47 82° WNW 22:39:06 10° NNE
COSMOS 2428 2.5 22:35:03 73° SSE 22:35:31 78° ESE 22:41:16 10° NNE
NOSS 3-2 (C) 4.1 22:29:06 10° NW 22:36:30 65° NE 22:39:02 45° ESE
DMSP B5D2-2 4.3 22:38:12 10° N 22:43:25 67° WNW 22:44:26 54° SW
Cosmos 1437 Rocket 4.0 22:45:34 40° N 22:45:34 40° N 22:48:12 10° N
Cosmos 2360 Rocket 3.2 22:39:14 10° SW 22:44:36 44° WNW 22:49:58 10° NNE
Terra 2.0 22:45:43 67° W 22:45:43 67° W 22:50:18 10° NNW
Cosmos 1844 3.5 22:40:45 10° NNW 22:46:28 89° ENE 22:46:42 83° SE
Cosmos 2333 Rocket 2.9 22:50:50 40° ENE 22:50:50 40° ENE 22:54:46 10° NE
Cosmos 968 Rocket 4.4 22:48:06 10° N 22:52:31 36° NE 22:52:31 36° NE
Cosmos 1626 Rocket 4.2 22:49:53 10° N 22:53:12 51° NNW 22:53:12 51° NNW
ATLAS 2AS CENTAUR R/B 3.8 22:47:48 10° WSW 22:55:24 51° NW 23:03:20 10° NNE
Cosmos 2333 4.2 22:58:32 70° WSW 22:59:02 76° WNW 23:04:42 10° NNE
CZ-2C R/B 4.1 23:00:26 32° NE 23:00:26 32° NE 23:03:57 10° N
NOSS 0 Rocket 4.3 23:05:39 49° ENE 23:05:39 49° ENE 23:10:36 10° NE
GP-B 3.9 23:00:47 10° N 23:04:22 49° NW 23:04:22 49° NW
NOSS 3-4 (A) 3.9 23:06:38 50° ENE 23:06:38 50° ENE 23:11:40 10° NE
NOSS 3-4 (C) 3.9 23:06:45 49° ENE 23:06:45 49° ENE 23:11:46 10° NE
Cosmos 1354 Rocket 4.3 23:01:08 10° NNW 23:06:02 64° W 23:06:02 64° W
Cosmos 1818 3.7 23:07:28 68° NNE 23:07:28 68° NNE 23:12:15 10° NE
Spot 4 4.3 23:08:29 60° NNW 23:08:29 60° NNW 23:12:25 10° NNW
SL-19 R/B 4.4 23:05:04 10° NNE 23:11:25 83° WNW 23:12:01 74° SW
Cosmos 2237 Rocket 3.1 23:15:20 38° NE 23:15:20 38° NE 23:18:58 10° NE
CENTAUR R/B 3.6 23:07:09 10° NNW 23:14:39 51° NE 23:17:29 38° E
USA 81 4.3 23:11:10 10° N 23:15:48 68° NNW 23:15:48 68° NNW
Cosmos 1980 4.3 23:20:40 46° NE 23:20:40 46° NE 23:24:47 10° NNE
CZ-4B R/B 4.2 23:18:44 10° NNE 23:22:01 44° NNE 23:22:01 44° NNE
USA 215 4.0 23:25:50 29° ENE 23:28:50 47° NNE 23:35:03 10° NW
Cosmos 2181 Rocket 4.0 23:26:08 10° N 23:32:35 79° W 23:32:35 79° W
Cosmos 2297 4.3 23:28:45 10° NNW 23:33:50 50° NE 23:33:50 50° NE
BREEZE M DEB (TANK) 4.1 23:22:09 10° WSW 23:36:59 81° NNW 23:37:49 65° NE
Lacrosse 5 3.5 23:35:08 10° W 23:39:42 32° NNW 23:44:16 10° NE
Cosmos 1709 Rocket 4.2 23:40:17 61° W 23:40:28 61° WNW 23:46:39 10° N
ATLAS CENTAUR R/B 3.8 23:40:54 10° NNW 23:42:14 17° N 23:42:14 17° N
ALOS 2 4.2 23:48:31 33° N 23:48:31 33° N 23:51:01 10° N
NOSS 3-2 (A) 4.5 23:43:11 10° NW 23:50:18 45° WSW 23:50:24 45° WSW
Cosmos 2278 Rocket 2.9 23:45:10 10° NNW 23:49:36 48° WNW 23:49:36 48° WNW
